COSMOS 2251 DEB, 33914

Orbit data source: Space-Track

COSMOS 2251 DEB, 33914 is space debris in LEO originally from a launch on Wed, 16 Jun 1993 UTC launched from the Plesetsk Missile And Space Complex (PKMTR). The debris from Iridium 33, an American commercial communications satellite, has been tracked extensively since its accidental collision with the defunct Russian satellite Cosmos 2251 in 2009. This event, occurring at high speed in low Earth orbit (LEO), generated thousands of pieces of space debris, significantly increasing the risk of further collisions. The Iridium 33 debris cloud has impacted space traffic management and orbital debris mitigation strategies, making it a subject of ongoing study in space situational awareness.

Loading next visibility...
Identifier
33914, 1993-036DT
Orbit
LEO
Country
Flag of CISCIS
Related business
Manufacturer
Unknown
Mission
Spacecraft
Bus & Motor
Unknown
Mass
Unknown
Launch date (UTC)
1993-06-16 (33 years ago)
Launch vehicle
Unknown
Launch site
Plesetsk Missile And Space Complex (PKMTR)
Object type
Payload
Rocket body
Debris
Shape & HBR
Unknown shape, 0.2 m
Radar Cross Section
Medium (>0.1 m² and <1 m²)

Expand to show TLE details & history
Last TLE update: 14 hours ago

TLE from 14 hours ago
0 COSMOS 2251 DEB
1 33914U 93036DT  26037.15950595  .00000849  00000-0  69094-3 0  9990
2 33914  74.0898 283.7590 0302714  13.6137 142.6306 13.72084639848410
Epoch: 2026-02-06T03:49Z
TLE epoch observation values (Epoch: 2026-02-06T03:49:41.314Z)
Latitude
20.85264°
Longitude
-96.1664°
Altitude
1,174.047 km
Speed
7.179 km/s
True Right ascension
06h 30m 13s
True Declination
20° 44' 41"
Sunlit
Object was in full shadow at epoch
Visualization orbit readout
Latitude
Unknown
Longitude
Unknown
Altitude
Unknown
Speed
Unknown
Apparent Right ascension
Unknown
Apparent Declination
Unknown
Sunlit
N/A
Visualization observer readout
Local Sidereal Time
19:45:52
Azimuth
Unknown
Elevation
Unknown
Doppler factor
Unknown
Orbital elements
Apogee altitude
1,212.821 km
Perigee altitude
766.747 km
Semi-major axis
7,367.921 km
Eccentricity
0.03027
Inclination
74.0898°
RAAN
283.759°
Arg. of periapsis
13.6137°
True anomaly
144.67405°
Mean anomaly
142.6306°
Eccentric anomaly
143.65842°
Mean motion
3.43183 °/min
Orbital period
104.9 mins
BSTAR
0.00069094
Loading maneuver chart data...
Computing Atmospheric mass density...

Documentation

Showing up to 5 results
|